FW8239 Weather Reports


Display with metric or nautical units.
time (UTC)temp
F
wind
direction
speed
MPH
gust
MPH
rain 1hr
in
rain 24hr
in
rain mn
in
humidity
%
barometer
mb
20260504050525 0 226 0.0 0.0 0.00 0.00 0.00 2 1018.0
20260504045521 0 226 0.0 0.0 0.00 0.00 0.00 2 1017.8
20260504045020 0 226 0.0 0.0 0.00 0.00 0.00 3 1017.6
20260504044519 0 226 0.0 0.0 0.00 0.00 0.00 6 1017.4
20260504044017 0 226 0.0 0.0 0.00 0.00 0.00 8 1017.3
20260504043516 0 226 0.0 0.0 0.00 0.00 0.00 8 1017.2
20260504043016 0 226 0.0 0.0 0.00 0.00 0.00 8 1017.1
20260504042513 0 225 0.0 0.0 0.00 0.00 0.00 9 1017.2
20260504042012 0 231 0.0 0.0 0.00 0.00 0.00 11 1017.4
20260504041513 0 231 0.0 1.0 0.00 0.00 0.00 12 1017.6
20260504041008 0 231 0.0 1.0 0.00 0.00 0.00 8 1017.6
20260504040508 0 302 0.0 0.0 0.00 0.00 0.00 2 1017.5
20260504040005 0 212 0.0 0.0 0.00 0.00 0.00 2 1017.6
20260504035504 0 212 0.0 0.0 0.00 0.00 0.00 2 1017.6
20260504035003 0 212 0.0 0.0 0.00 0.00 0.00 2 1017.5
20260504034502 0 212 0.0 0.0 0.00 0.00 0.00 6 1017.4
20260504034100 0 212 0.0 0.0 0.00 0.00 0.00 10 1017.4
20260504033601 0 212 0.0 0.0 0.00 0.00 0.00 11 1017.4
20260504033057 0 212 0.0 0.0 0.00 0.00 0.00 15 1017.4
20260504032555 0 212 0.0 0.0 0.00 0.00 0.00 19 1017.4
20260504032057 0 212 0.0 0.0 0.00 0.00 0.00 23 1017.5
20260504031601 0 212 0.0 0.0 0.00 0.00 0.00 24 1017.6
20260504031052 0 249 0.0 0.0 0.00 0.00 0.00 22 1017.7
20260504030549 0 234 0.0 0.0 0.00 0.00 0.00 19 1017.7
20260504030049 0 234 0.0 0.0 0.00 0.00 0.00 22 1017.7
20260504025549 0 234 0.0 0.0 0.00 0.00 0.00 20 1017.8
20260504025046 0 234 0.0 0.0 0.00 0.00 0.00 19 1017.8
20260504024545 0 234 0.0 0.0 0.00 0.00 0.00 21 1017.7
20260504024042 0 248 0.0 0.0 0.00 0.00 0.00 23 1017.7
20260504023541 0 248 0.0 1.0 0.00 0.00 0.00 25 1017.7
20260504023040 0 204 0.0 0.0 0.00 0.00 0.00 25 1017.6
20260504022538 0 205 0.0 0.0 0.00 0.00 0.00 26 1017.6
20260504022037 0 203 0.0 0.0 0.00 0.00 0.00 28 1017.8
20260504021537 0 271 0.0 0.0 0.00 0.00 0.00 29 1017.7
20260504021035 0 329 0.0 0.0 0.00 0.00 0.00 29 1017.7
20260504020532 0 211 0.0 0.0 0.00 0.00 0.00 28 1017.7
20260504020031 0 205 0.0 0.0 0.00 0.00 0.00 28 1017.6
20260504015529 0 252 0.0 0.0 0.00 0.00 0.00 29 1017.6
20260504015028 0 344 0.0 0.0 0.00 0.00 0.00 28 1017.6
20260504014531 0 279 0.0 0.0 0.00 0.00 0.00 28 1017.6
20260504014025 0 280 0.0 0.0 0.00 0.00 0.00 28 1017.5
20260504013523 0 280 0.0 0.0 0.00 0.00 0.00 29 1017.5
20260504013025 0 280 0.0 0.0 0.00 0.00 0.00 30 1017.4
20260504012520 0 280 0.0 0.0 0.00 0.00 0.00 36 1017.2
20260504012019 0 280 0.0 0.0 0.00 0.00 0.00 40 1017.2
20260504011517 0 280 0.0 0.0 0.00 0.00 0.00 42 1017.2
20260504011017 0 280 0.0 0.0 0.00 0.00 0.00 47 1017.4
20260504010513 0 280 0.0 0.0 0.00 0.00 0.00 49 1017.6
20260504010012 0 298 0.0 0.0 0.00 0.00 0.00 50 1017.8
20260504005512 0 298 0.0 0.0 0.00 0.00 0.00 51 1018.1
20260504005013 0 297 0.0 0.0 0.00 0.00 0.00 51 1018.3
20260504004516 0 298 0.0 0.0 0.00 0.00 0.00 54 1018.6
20260504004006 0 307 0.0 0.0 0.00 0.00 0.00 56 1018.4
20260504003504 0 299 0.0 1.0 0.00 0.00 0.00 57 1018.6
20260504003005 0 299 0.0 1.0 0.00 0.00 0.00 65 1018.9
20260504002502 0 38 0.0 1.0 0.00 0.00 0.00 62 1018.8
20260504002100 0 114 0.0 3.0 0.00 0.00 0.00 63 1018.8
20260504002003 0 128 0.0 3.0 0.00 0.00 0.00 63 1018.7
20260504001601 0 278 0.0 3.0 0.00 0.00 0.00 63 1018.5
20260504001100 0 94 0.0 0.0 0.00 0.00 0.00 61 1018.1
20260504000556 0 94 0.0 1.0 0.00 0.00 0.00 61 1017.6
20260504000054 0 94 0.0 1.0 0.00 0.00 0.00 61 1017.2
20260503235553 0 352 0.0 1.0 0.00 0.00 0.00 61 1016.9
20260503235053 0 352 0.0 1.0 0.00 0.00 0.00 63 1016.6
20260503234612 0 18 0.0 0.0 0.00 0.00 0.00 64 1016.2
20260503234053 0 18 0.0 0.0 0.00 0.00 0.00 64 1016.1
20260503233548 0 18 0.0 0.0 0.00 0.00 0.00 65 1015.8
20260503233049 0 18 0.0 2.0 0.00 0.00 0.00 67 1015.7
20260503232543 0 315 0.0 2.0 0.00 0.00 0.00 67 1015.5
20260503232042 0 274 0.0 0.0 0.00 0.00 0.00 67 1015.5
20260503231541 0 281 0.0 0.0 0.00 0.00 0.00 68 1015.5
20260503231040 0 281 0.0 0.0 0.00 0.00 0.00 68 1015.7
20260503230541 0 281 0.0 0.0 0.00 0.00 0.00 69 1015.8
20260503230037 0 280 0.0 1.0 0.00 0.00 0.00 71 1016.0
20260503225536 0 281 0.0 1.0 0.00 0.00 0.00 71 1016.1
20260503225033 0 78 0.0 0.0 0.00 0.00 0.00 71 1016.0
20260503224532 0 78 0.0 0.0 0.00 0.00 0.00 72 1016.2
20260503224031 0 78 0.0 4.0 0.00 0.00 0.00 73 1016.2
20260503223530 0 90 0.0 4.0 0.00 0.00 0.00 73 1016.3
20260503223028 0 100 0.0 3.0 0.00 0.00 0.00 74 1016.3
20260503222526 0 359 0.0 4.0 0.00 0.00 0.00 74 1016.5
20260503222024 0 72 2.0 5.0 0.00 0.00 0.00 75 1016.6
20260503221529 0 91 2.0 5.0 0.00 0.00 0.00 73 1016.3
20260503221022 0 129 0.0 0.0 0.00 0.00 0.00 72 1016.0
20260503220520 0 129 0.0 0.0 0.00 0.00 0.00 76 1016.1
20260503220019 0 129 0.0 0.0 0.00 0.00 0.00 77 1016.1
20260503215519 0 129 0.0 0.0 0.00 0.00 0.00 76 1016.3
20260503215016 0 129 0.0 0.0 0.00 0.00 0.00 75 1016.3
20260503214515 0 129 0.0 0.0 0.00 0.00 0.00 76 1016.1
20260503214013 0 129 0.0 0.0 0.00 0.00 0.00 77 1016.2
20260503213512 0 122 0.0 0.0 0.00 0.00 0.00 79 1016.3
20260503213010 0 120 0.0 1.0 0.00 0.00 0.00 78 1016.4
20260503212508 0 122 0.0 1.0 0.00 0.00 0.00 80 1016.5
20260503212007 0 89 0.0 1.0 0.00 0.00 0.00 80 1016.3
20260503211505 0 107 0.0 1.0 0.00 0.00 0.00 79 1016.0
20260503211004 0 107 0.0 1.0 0.00 0.00 0.00 80 1016.0
20260503210503 0 84 0.0 0.0 0.00 0.00 0.00 82 1016.0
20260503210002 0 84 0.0 1.0 0.00 0.00 0.00 84 1016.1
20260503205600 0 84 0.0 1.0 0.00 0.00 0.00 85 1016.3
20260503205058 0 71 0.0 0.0 0.00 0.00 0.00 87 1016.4
20260503204558 0 72 0.0 1.0 0.00 0.00 0.00 90 1016.5
20260503204056 0 71 0.0 1.0 0.00 0.00 0.00 90 1016.5
20260503203555 0 71 0.0 1.0 0.00 0.00 0.00 95 1016.5
20260503203057 0 43 0.0 0.0 0.00 0.00 0.00 99 1016.5
20260503202552 0 43 0.0 0.0 0.00 0.00 0.00 100 1016.8
20260503202052 0 43 0.0 0.0 0.00 0.00 0.00 100 1016.8
20260503201551 0 42 0.0 0.0 0.00 0.00 0.00 100 1016.7
20260503201046 0 42 0.0 0.0 0.00 0.00 0.00 100 1016.9
20260503200545 0 42 0.0 0.0 0.00 0.00 0.00 100 1017.1
20260503200050 0 42 0.0 0.0 0.00 0.00 0.00 100 1017.1
20260503195546 0 79 0.0 1.0 0.00 0.00 0.00 100 1017.2
20260503195044 0 79 0.0 1.0 0.00 0.00 0.00 100 1017.5
20260503194543 0 79 0.0 0.0 0.00 0.00 0.00 100 1017.4
20260503194039 0 79 0.0 0.0 0.00 0.00 0.00 100 1017.6
20260503193537 0 79 0.0 0.0 0.00 0.00 0.00 100 1017.7
20260503193035 0 79 0.0 0.0 0.00 0.00 0.00 100 1017.9
20260503192534 0 79 0.0 0.0 0.00 0.00 0.00 100 1018.1
20260503192032 0 79 0.0 0.0 0.00 0.00 0.00 100 1017.9
20260503191535 0 79 0.0 0.0 0.00 0.00 0.00 100 1018.1
20260503191030 0 80 0.0 2.0 0.00 0.00 0.00 100 1017.9
20260503190528 0 102 0.0 2.0 0.00 0.00 0.00 100 1018.0
20260503190027 0 106 0.0 0.0 0.00 0.00 0.00 100 1017.9
20260503185525 0 106 0.0 1.0 0.00 0.00 0.00 100 1018.0
20260503185024 0 105 0.0 1.0 0.00 0.00 0.00 100 1018.1
20260503184522 0 106 0.0 1.0 0.00 0.00 0.00 100 1018.2
20260503184021 0 115 0.0 1.0 0.00 0.00 0.00 100 1018.2
20260503183519 0 115 0.0 1.0 0.00 0.00 0.00 100 1018.4
20260503183018 0 115 0.0 0.0 0.00 0.00 0.00 100 1018.3
20260503182516 0 115 0.0 0.0 0.00 0.00 0.00 96 1018.3
20260503182014 0 113 0.0 3.0 0.00 0.00 0.00 92 1018.3
20260503181513 0 118 0.0 4.0 0.00 0.00 0.00 89 1018.2
20260503181012 0 87 1.0 6.0 0.00 0.00 0.00 86 1018.2
20260503180512 0 259 0.0 6.0 0.00 0.00 0.00 85 1018.2
20260503180010 0 24 1.0 6.0 0.00 0.00 0.00 86 1018.3
20260503175507 0 43 0.0 5.0 0.00 0.00 0.00 86 1018.3
20260503175006 0 67 1.0 9.0 0.00 0.00 0.00 86 1018.4
20260503174505 0 113 2.0 9.0 0.00 0.00 0.00 84 1018.4
20260503174004 0 146 0.0 8.0 0.00 0.00 0.00 82 1018.5
20260503173502 0 96 1.0 8.0 0.00 0.00 0.00 83 1018.5
20260503173001 0 91 0.0 6.0 0.00 0.00 0.00 84 1018.6
20260503172602 0 84 1.0 8.0 0.00 0.00 0.00 84 1018.5
20260503172057 0 57 4.0 8.0 0.00 0.00 0.00 82 1018.6
20260503171558 0 85 2.0 10.0 0.00 0.00 0.00 80 1018.5
20260503171055 0 92 2.0 10.0 0.00 0.00 0.00 80 1018.6
20260503170553 0 91 0.0 5.0 0.00 0.00 0.00 80 1018.6
20260503150518 0 162 0.0 0.0 0.00 0.00 0.00 100 1018.8
20260503140110 0 206 0.0 0.0 0.00 0.00 0.00 100 1018.2
20260503131044 0 0.0 0.0 0.00 0.00 0.00 1017.7
20260503130547 0 0.0 0.0 0.00 0.00 0.00 1017.6
20260503110508 0 0.0 0.0 0.00 0.00 0.00 1017.1
20260503081521 0 206 0.0 0.0 0.00 0.00 0.00 1016.4
20260503081019 0 208 0.0 0.0 0.00 0.00 0.00 1016.6
20260503080516 0 208 0.0 0.0 0.00 0.00 0.00 100 1016.5
20260503072505 0 207 0.0 0.0 0.00 0.00 0.00 100 1016.8
20260503072003 0 207 0.0 0.0 0.00 0.00 0.00 100 1016.8
20260503071502 0 207 0.0 0.0 0.00 0.00 0.00 100 1016.9
20260503071100 0 207 0.0 0.0 0.00 0.00 0.00 100 1017.0
20260503070603 0 207 0.0 0.0 0.00 0.00 0.00 100 1017.0